MPEC 2006-S10 : 2006 SC

The following Minor Planet Electronic Circular may be linked-to from your own Web pages, but must not otherwise be redistributed electronically.


Read MPEC 2006-S09 Read MPEC 2006-S11


M.P.E.C. 2006-S10                                Issued 2006 Sept. 17, 22:28 UT

     The Minor Planet Electronic Circulars contain information on unusual
         minor planets and routine data on comets.  They are published
   on behalf of Commission 20 of the International Astronomical Union by the
          Minor Planet Center, Smithsonian Astrophysical Observatory,
                          Cambridge, MA 02138, U.S.A.

                  Supported in part by the Brinson Foundation
                  Supported in part by the TABASGO Foundation
             Prepared using the Tamkin Foundation Computer Network

                              MPC@CFA.HARVARD.EDU
          URL http://cfa-www.harvard.edu/iau/mpc.html  ISSN 1523-6714

                                    2006 SC

Observations:
     K06S00C* C2006 09 16.24646 23 32 55.75 +24 19 37.0          17.9 V ES010703
     K06S00C  C2006 09 16.25292 23 32 45.20 +24 18 57.0          17.2 V ES010703
     K06S00C  C2006 09 16.25937 23 32 34.69 +24 18 16.3          17.2 V ES010703
     K06S00C  C2006 09 16.38385 23 29 20.94 +24 04 55.5          17.8 V ES010703
     K06S00C  C2006 09 16.38429 23 29 20.29 +24 04 52.5          18.0 V ES010703
     K06S00C  C2006 09 16.38862 23 29 13.88 +24 04 23.8          17.9 V ES010703
     K06S00C  C2006 09 16.38906 23 29 13.34 +24 04 21.2          17.8 V ES010703
     K06S00C  C2006 09 16.39339 23 29 06.97 +24 03 52.5          17.9 V ES010703
     K06S00C  C2006 09 16.39384 23 29 06.32 +24 03 49.6          17.7 V ES010703
     K06S00C  C2006 09 16.39822 23 28 59.98 +24 03 20.8          17.8 V ES010703
     K06S00C  C2006 09 16.39866 23 28 59.30 +24 03 18.0          17.8 V ES010703
     K06S00C  C2006 09 16.45645 23 27 38.70 +23 56 55.8          17.6 V ES010703
     K06S00C  C2006 09 16.45803 23 27 36.54 +23 56 44.4          17.8 V ES010703
     K06S00C  C2006 09 16.45959 23 27 34.45 +23 56 33.9          17.7 V ES010703
     K06S00C  C2006 09 16.46117 23 27 32.36 +23 56 23.6          17.8 V ES010703
     K06S00C  C2006 09 16.49676 23 26 46.06 +23 52 28.2          18.3 V ES010703
     K06S00C  C2006 09 16.49729 23 26 45.24 +23 52 24.9          18.4 V ES010703
     K06S00C  C2006 09 16.49782 23 26 44.70 +23 52 21.7          18.4 V ES010703
     K06S00C  C2006 09 16.49835 23 26 43.98 +23 52 17.6          18.2 V ES010703
     K06S00C  C2006 09 16.96047 23 18 54.91 +23 12 51.9          18.6 V ES010585
     K06S00C  C2006 09 16.96128 23 18 54.09 +23 12 48.1          18.6 V ES010585
     K06S00C  C2006 09 16.96211 23 18 53.40 +23 12 42.5          18.6 V ES010585
     K06S00C  C2006 09 16.96510 23 18 50.65 +23 12 32.2          18.6 V ES010585
     K06S00C  C2006 09 16.96715 23 18 48.43 +23 12 20.9          18.5 V ES010585
     K06S00C  C2006 09 16.96922 23 18 46.48 +23 12 12.2          18.5 V ES010585
     K06S00C  C2006 09 16.97376 23 18 41.59 +23 11 48.9          18.7 V ES010585
     K06S00C  C2006 09 16.97613 23 18 39.18 +23 11 36.8          18.8 V ES010585
     K06S00C  C2006 09 16.97762 23 18 37.61 +23 11 29.5          18.4 V ES010585
     K06S00C  C2006 09 16.97910 23 18 36.16 +23 11 23.0          18.4 V ES010585
     K06S00C  C2006 09 16.98062 23 18 34.81 +23 11 16.3          18.4 V ES010585
     K06S00C  C2006 09 17.05344 23 17 53.46 +23 06 24.9          18.1 R ES010932
     K06S00C  C2006 09 17.05770 23 17 49.41 +23 06 08.7          18.0 R ES010932
     K06S00C  C2006 09 17.07507 23 17 32.88 +23 05 02.4          18.3 R ES010932
     K06S00C  C2006 09 17.13829 23 16 45.07 +23 01 12.6          18.6 R ES010651
     K06S00C  C2006 09 17.13958 23 16 43.92 +23 01 07.8          18.7 R ES010651
     K06S00C  C2006 09 17.14023 23 16 43.31 +23 01 05.3          18.7 R ES010651
     K06S00C  C2006 09 17.15393 23 16 30.78 +23 00 02.4          18.4 V ES010G88
     K06S00C  C2006 09 17.18609 23 16 01.66 +22 58 06.9          17.6 V ES010G88
     K06S00C  C2006 09 17.20936 23 15 40.24 +22 56 52.2          18.1 V ES010703
     K06S00C  C2006 09 17.22234 23 15 28.44 +22 56 04.3          18.5 V ES010703
     K06S00C  C2006 09 17.23531 23 15 16.63 +22 55 15.7          18.2 V ES010703
     K06S00C 5C2006 09 17.24984 23 15 05.70 +22 54 06.0          18.5 R ES010673
     K06S00C 5C2006 09 17.25444 23 15 01.72 +22 53 49.7                 ES010673
     K06S00C 5C2006 09 17.25975 23 14 56.95 +22 53 29.1                 ES010673
     K06S00C 5C2006 09 17.26477 23 14 52.50 +22 53 10.9                 ES010673
     K06S00C SC2006 09 17.90836 23 07 53.70 +22 15 07.8                 ES010J95
     K06S00C SC2006 09 17.91131 23 07 51.83 +22 15 00.6                 ES010J95
     K06S00C SC2006 09 17.92149 23 07 45.42 +22 14 31.0          18.6 R ES010J95

Observer details:
585 Kiev comet station.  Observer A. Baransky.  0.7-m f/4 reflector + CCD.
651 Grasslands Observatory, Tucson.  Observer J. E. McGaha.  0.62-m f/5.1
    Newtonian reflector + CCD.
673 Table Mountain Observatory, Wrightwood.  Observer J. Young.  0.61-m f/16
    Cassegrain + CCD.
703 Catalina Sky Survey.  Observers E. J. Christensen, A. R. Gibbs.  Measurers
    E. C. Beshore, E. J. Christensen, G. J. Garradd, A. R. Gibbs, A. D. Grauer,
    R. E. Hill, R. A. Kowalski, S. M. Larson, R. H. McNaught.  0.68-m Schmidt
    + CCD.
932 John J. McCarthy Obs., New Milford.  Observer W. Cloutier.  0.4-m f/6.5
    Schmidt-Cassegrain + CCD.
G88 LAMP Observatory, New River.  Observer S. Loucks.  Measurer J. Loucks.
    0.28-m f/3.3 Schmidt-Cassegrain + CCD.
J95 Great Shefford.  Observer P. Birtwhistle.  0.40-m f/6.0 Schmidt-Cassegrain
    + CCD.

Orbital elements:
2006 SC                                                  Earth MOID = 0.0002 AU
Epoch 2006 Sept. 22.0 TT = JDT 2454000.5                MPC
M  61.89627              (2000.0)            P               Q
n   0.83968134     Peri.  265.09337     -0.23930320     +0.97052309
a   1.1127383      Node   350.90755     -0.80354182     -0.21450253
e   0.3500483      Incl.   10.43300     -0.54502708     -0.10987992
P   1.17           H   25.3           G   0.15           U   7
Residuals in seconds of arc
060916 703  0.3+  0.2-    060916 703  1.8-  0.1-    060917 932  0.3-  0.4-
060916 703  0.5+  0.0     060916 703  0.0   0.2+    060917 651  0.4-  0.6+
060916 703  0.6+  0.4-    060916 703  0.7-  0.4-    060917 651  0.1-  0.4+
060916 703  0.3+  0.2-    060916 585 (0.9+  2.1+)   060917 651  0.4-  0.2+
060916 703  0.3+  0.3-    060916 585 (0.9+  2.1+)   060917 G88  0.8-  0.8+
060916 703  0.6-  0.5-    060916 585 (2.9+  0.4+)   060917 G88  0.0   0.3+
060916 703  0.8+  0.2-    060916 585 (6.6+  4.2+)   060917 703  0.3-  0.1+
060916 703  0.0   0.3-    060916 585 (4.4+  2.6+)   060917 703  0.0   0.0
060916 703  0.1+  0.3-    060916 585 (6.1+  3.7+)   060917 703  0.5-  0.3-
060916 703  0.2+  0.1-    060916 585  1.4+  1.8+    060917 673  1.0-  0.1-
060916 703  0.4-  0.0     060916 585  0.7+  0.9+    060917 673  0.9+  0.6+
060916 703  0.2+  0.8+    060916 585  0.5-  0.7+    060917 673  0.6+  0.3-
060916 703  0.3-  0.2-    060916 585  0.2-  1.2+    060917 673  1.1+  0.2+
060916 703  0.3-  0.3-    060916 585 (2.0+  1.7+)   060917 J95  0.2+  0.5-
060916 703  0.0   0.1-    060917 932  0.2-  0.3-    060917 J95  0.0   0.5+
060916 703  0.3+  0.3-    060917 932  0.2-  0.3-    060917 J95  0.1-  0.7-

Ephemeris:
2006 SC                  a,e,i = 1.11, 0.35, 10                  q = 0.7232
Date    TT    R. A. (2000) Decl.     Delta      r     Elong.  Phase     V
2006 09 12    09 00.73   -07 44.7    0.0126   0.996    36.7   142.9    23.0
2006 09 13    07 34.32   +04 34.9    0.00686  1.003    57.0   122.6    19.5
2006 09 14    03 11.34   +29 00.8    0.00575  1.009   117.1    62.6    16.3
2006 09 15    00 28.00   +27 43.1    0.0108   1.015   146.1    33.6    16.9
2006 09 16    23 39.39   +24 50.0    0.0172   1.021   152.3    27.2    17.7
2006 09 17    23 18.44   +23 12.8    0.0240   1.027   153.9    25.5    18.4
2006 09 18    23 06.98   +22 13.1    0.0309   1.033   154.3    24.9    19.0
2006 09 19    22 59.81   +21 32.7    0.0378   1.039   154.3    24.8    19.4
2006 09 20    22 54.94   +21 03.3    0.0447   1.045   154.1    24.8    19.8
2006 09 21    22 51.43   +20 40.7    0.0517   1.051   153.9    24.9    20.1
2006 09 22    22 48.82   +20 22.4    0.0588   1.057   153.5    25.1    20.4
2006 09 23    22 46.82   +20 07.2    0.0658   1.063   153.1    25.3    20.7
2006 09 24    22 45.26   +19 54.1    0.0729   1.069   152.7    25.5    20.9
2006 09 25    22 44.03   +19 42.7    0.0801   1.075   152.3    25.7    21.1
2006 09 26    22 43.07   +19 32.4    0.0872   1.080   151.9    26.0    21.4
2006 09 27    22 42.31   +19 23.0    0.0944   1.086   151.4    26.2    21.5
2006 09 28    22 41.72   +19 14.4    0.102    1.092   150.9    26.5    21.7
2006 09 29    22 41.27   +19 06.4    0.109    1.098   150.4    26.8    21.9
2006 09 30    22 40.95   +18 58.8    0.116    1.104   149.9    27.1    22.1
2006 10 01    22 40.73   +18 51.7    0.124    1.109   149.4    27.4    22.2
2006 10 02    22 40.61   +18 44.9    0.131    1.115   148.8    27.7    22.4

Gareth V. Williams           (C) Copyright 2006 MPC           M.P.E.C. 2006-S10

Read MPEC 2006-S09 Read MPEC 2006-S11


Our Web policy. Index to the CBAT/MPC/ICQ pages.

MPC

Valid HTML 4.01!